Wind_Speed
86 89 89 90 91 93 95 98 101 104 104 106 107 108 107 109 104 103 102 108 107 112 116 125 129 129 123
89 91 92 94 96 99 100 103 105 108 109 109 113 112 114 110 109 107 111 110 121 122 123 130 135 127 121
95 97 98 98 101 103 105 107 109 110 111 113 113 115 114 113 111 115 117 125 128 131 131 131 124 121 121
98 100 101 105 106 107 109 113 111 112 115 115 113 114 116 116 119 124 126 128 131 132 127 116 117 119 117
104 105 106 108 110 111 111 112 112 115 114 119 118 122 128 131 130 131 142 135 131 125 112 107 102 104 106
107 109 110 109 110 110 111 112 114 121 119 123 126 130 134 135 138 142 144 133 130 115 106 103 105 101 102
106 109 110 111 110 112 117 118 121 124 124 124 129 133 141 145 143 149 143 125 117 104 102 104 100 94 90
105 106 108 111 115 117 116 119 122 128 130 127 133 138 145 145 152 147 132 112 99 98 96 92 89 84 78
110 111 113 116 118 118 121 121 125 133 138 132 138 142 152 157 162 133 118 104 98 96 86 79 77 74 70
114 119 120 123 124 125 126 128 134 137 140 142 144 144 148 157 142 120 108 102 91 84 74 72 71 66 62
120 122 125 128 129 131 134 138 141 145 146 143 148 155 141 126 125 107 100 96 83 76 67 65 63 61 59
125 127 129 130 132 138 142 146 152 153 151 151 149 138 125 111 110 102 89 82 72 71 66 61 56 56 54
128 132 132 135 141 143 148 152 158 155 157 146 126 110 108 96 88 80 78 80 67 64 62 57 54 50 48
134 135 139 143 148 148 155 154 155 163 153 121 105 100 92 82 72 72 72 69 68 58 56 51 49 47 45
140 143 146 148 153 155 149 157 152 127 120 110 106 93 80 68 69 67 67 62 57 56 54 50 44 44 41
145 149 152 155 159 161 155 146 120 111 104 97 92 86 79 64 59 62 62 56 53 50 50 47 40 39 39
150 153 156 157 154 159 129 125 116 104 94 84 80 77 75 68 53 52 54 52 50 48 46 43 41 38 36
Wind_Direction
278 281 283 285 286 287 289 291 293 294 296 297 300 303 301 301 302 304 301 308 307 309 309 307 311 305 300
281 281 282 283 286 289 291 291 293 296 297 299 300 300 301 301 300 304 309 308 311 312 310 308 308 301 292
281 282 284 286 287 289 292 293 294 294 297 297 298 299 300 299 300 305 309 310 310 310 310 309 303 295 290
279 283 285 286 288 289 291 293 293 295 297 298 300 299 302 306 309 311 311 309 311 311 309 303 299 296 292
281 284 285 285 287 291 291 291 293 294 297 298 301 306 308 308 307 311 313 312 315 313 307 302 301 295 293
281 283 284 287 289 289 290 293 294 295 298 302 304 304 308 307 310 313 314 315 314 312 303 300 297 295 295
282 284 286 287 289 291 292 294 294 296 299 302 304 307 310 311 313 315 314 312 309 305 303 300 296 295 293
285 284 286 288 288 290 293 294 296 298 299 302 307 310 315 314 315 316 313 308 305 304 302 300 296 295 293
284 287 288 290 292 291 292 297 299 301 303 309 310 312 315 315 316 314 310 304 304 305 301 298 295 295 293
286 289 290 293 293 293 295 297 300 304 307 310 312 316 315 316 315 310 305 305 306 304 300 299 296 295 290
291 292 292 293 295 296 297 298 301 305 309 312 313 316 316 315 313 308 309 303 302 301 300 297 295 294 290
290 292 292 294 296 296 299 300 305 308 311 313 313 315 315 313 309 306 305 302 303 302 299 296 294 292 289
290 291 293 296 297 299 301 303 308 310 313 313 315 312 311 309 310 305 304 302 303 300 297 296 295 292 289
290 294 294 296 298 304 302 308 307 311 313 314 312 312 311 310 309 307 302 302 302 300 296 296 296 293 290
291 293 295 298 300 302 306 308 312 313 311 312 315 312 310 312 311 305 301 302 301 301 299 298 297 293 289
292 294 295 300 302 305 309 310 314 314 315 316 312 311 311 312 311 305 302 303 302 300 298 298 297 291 289
293 296 298 302 303 310 309 312 315 317 317 313 312 311 310 311 312 306 304 305 304 302 300 299 297 295 291
Height
10613 10610 10609 10604 10598 10591 10585 10579 10572 10564 10559 10552 10545 10537 10528 10519 10511 10502 10495 10485 10474 10460 10446 10436 10420 10407 10390
10593 10589 10587 10583 10578 10571 10563 10556 10550 10541 10533 10526 10517 10507 10497 10487 10478 10471 10462 10450 10439 10426 10412 10398 10376 10357 10340
10571 10568 10564 10562 10555 10550 10542 10532 10525 10518 10512 10503 10492 10483 10472 10460 10448 10440 10429 10418 10404 10390 10372 10354 10331 10315 10301
10557 10550 10545 10539 10535 10530 10518 10509 10500 10493 10483 10477 10466 10452 10441 10429 10416 10406 10393 10382 10368 10349 10327 10307 10289 10279 10267
10538 10533 10527 10521 10515 10505 10500 10493 10477 10470 10463 10445 10440 10420 10406 10390 10380 10367 10358 10341 10321 10304 10285 10267 10253 10239 10227
10516 10511 10502 10498 10492 10483 10474 10468 10460 10434 10437 10422 10411 10396 10382 10361 10343 10327 10314 10295 10279 10262 10249 10229 10213 10202 10195
10493 10487 10481 10472 10468 10458 10447 10441 10429 10414 10412 10407 10388 10372 10353 10327 10307 10290 10275 10254 10241 10228 10213 10197 10182 10170 10163
10473 10465 10456 10447 10440 10434 10426 10418 10404 10386 10378 10384 10358 10344 10325 10296 10270 10252 10235 10221 10211 10198 10185 10166 10152 10142 10137
10449 10440 10431 10421 10414 10408 10396 10388 10379 10360 10337 10341 10325 10315 10296 10267 10231 10212 10198 10189 10175 10166 10155 10139 10126 10119 10110
10423 10413 10403 10395 10385 10376 10369 10360 10344 10337 10308 10311 10290 10271 10268 10233 10204 10181 10166 10152 10141 10134 10125 10114 10102 10096 10090
10397 10385 10375 10364 10356 10345 10335 10323 10310 10295 10280 10273 10261 10244 10219 10204 10174 10151 10140 10124 10112 10105 10100 10093 10082 10074 10067
10373 10363 10350 10340 10331 10317 10304 10289 10270 10263 10248 10234 10227 10207 10187 10168 10153 10125 10106 10098 10096 10080 10076 10072 10064 10056 10049
10349 10337 10327 10316 10303 10292 10274 10264 10246 10223 10208 10198 10186 10170 10147 10136 10128 10105 10089 10064 10071 10065 10055 10049 10043 10039 10032
10323 10313 10302 10288 10274 10267 10251 10238 10219 10199 10171 10162 10150 10134 10116 10109 10098 10083 10066 10056 10044 10044 10036 10031 10027 10020 10016
10301 10288 10275 10263 10250 10233 10221 10208 10187 10169 10151 10132 10111 10097 10087 10092 10075 10060 10044 10040 10033 10023 10016 10013 10012 10005 10002
10274 10264 10249 10237 10222 10206 10189 10177 10158 10138 10126 10108 10092 10072 10057 10066 10064 10040 10026 10022 10016 10011 10002 9996 9997 9993 9987
10251 10240 10228 10208 10198 10184 10156 10145 10127 10105 10094 10086 10072 10058 10041 10035 10041 10031 10014 10007 10000 9994 9987 9984 9980 9978 9975